HP3ICC-18 Weather Reports


time (UTC)temp
C
wind
direction
speed
KPH
gust
KPH
rain 1hr
cm
rain 24hr
cm
rain mn
cm
humidity
%
barometer
mb
20260503052217 25 156 1.6 1.6 0.00 0.00 0.00 86 1012.0
20260503052116 25 156 1.6 1.6 0.00 0.00 0.00 86 1012.0
20260503050216 25 156 1.6 1.6 0.00 0.00 0.00 86 1012.0
20260503050116 25 156 1.6 1.6 0.00 0.00 0.00 86 1012.0
20260503044216 25 156 1.6 1.6 0.00 0.00 0.00 86 1012.0
20260503044115 25 156 1.6 1.6 0.00 0.00 0.00 86 1012.0
20260503042215 25 156 1.6 1.6 0.00 0.00 0.00 86 1012.0
20260503042115 25 156 1.6 1.6 0.00 0.00 0.00 86 1012.0
20260503040215 25 156 1.6 1.6 0.00 0.00 0.00 86 1012.0
20260503040114 25 156 1.6 1.6 0.00 0.00 0.00 86 1012.0
20260503034214 26 157 1.6 1.6 0.00 0.00 0.00 76 1012.0
20260503034114 26 157 1.6 1.6 0.00 0.00 0.00 76 1012.0
20260503032214 26 157 1.6 1.6 0.00 0.00 0.00 76 1012.0
20260503032113 26 157 1.6 1.6 0.00 0.00 0.00 76 1012.0
20260503030213 26 157 1.6 1.6 0.00 0.00 0.00 76 1012.0
20260503030113 26 157 1.6 1.6 0.00 0.00 0.00 76 1012.0
20260503024212 26 157 1.6 1.6 0.00 0.00 0.00 76 1012.0
20260503024112 26 157 1.6 1.6 0.00 0.00 0.00 76 1012.0
20260503022212 26 157 1.6 1.6 0.00 0.00 0.00 76 1012.0
20260503022112 26 157 1.6 1.6 0.00 0.00 0.00 76 1012.0
20260503020211 26 157 1.6 1.6 0.00 0.00 0.00 76 1012.0
20260503020111 26 157 1.6 1.6 0.00 0.00 0.00 76 1012.0
20260503014211 26 157 1.6 1.6 0.00 0.00 0.00 76 1012.0
20260503014111 26 157 1.6 1.6 0.00 0.00 0.00 76 1012.0
20260503012210 26 157 1.6 1.6 0.00 0.00 0.00 76 1011.0
20260503012110 26 157 1.6 1.6 0.00 0.00 0.00 76 1011.0
20260503010209 26 157 1.6 1.6 0.00 0.00 0.00 76 1011.0
20260503010109 26 157 1.6 1.6 0.00 0.00 0.00 76 1011.0
20260503004209 26 157 1.6 1.6 0.00 0.00 0.00 76 1011.0
20260503004109 26 157 1.6 1.6 0.00 0.00 0.00 76 1011.0
20260503002208 26 157 1.6 1.6 0.00 0.00 0.00 76 1010.0
20260503002108 26 157 1.6 1.6 0.00 0.00 0.00 76 1010.0
20260503000211 26 157 1.6 1.6 0.00 0.00 0.00 76 1010.0
20260503000108 26 157 1.6 1.6 0.00 0.00 0.00 76 1010.0
20260502234208 26 157 1.6 1.6 0.00 0.00 0.00 76 1010.0
20260502234107 26 157 1.6 1.6 0.00 0.00 0.00 76 1010.0
20260502232207 26 157 1.6 1.6 0.00 0.00 0.00 76 1009.0
20260502232107 26 157 1.6 1.6 0.00 0.00 0.00 76 1009.0
20260502230207 26 157 1.6 1.6 0.00 0.00 0.00 76 1009.0
20260502230106 26 157 1.6 1.6 0.00 0.00 0.00 76 1009.0
20260502224206 26 157 1.6 1.6 0.00 0.00 0.00 76 1009.0
20260502224106 26 157 1.6 1.6 0.00 0.00 0.00 76 1009.0
20260502222206 26 157 1.6 1.6 0.05 0.00 0.00 76 1009.0
20260502222105 26 157 1.6 1.6 0.05 0.00 0.00 76 1009.0
20260502220205 26 157 1.6 1.6 0.00 0.00 0.00 76 1009.0
20260502220105 26 157 1.6 1.6 0.00 0.00 0.00 76 1009.0
20260502214204 26 157 1.6 1.6 0.05 0.00 0.00 76 1009.0
20260502214104 26 157 1.6 1.6 0.05 0.00 0.00 76 1009.0
20260502212204 26 157 1.6 1.6 0.00 0.00 0.00 76 1009.0
20260502212104 26 157 1.6 1.6 0.00 0.00 0.00 76 1009.0
20260502210204 26 157 1.6 1.6 0.05 0.00 0.00 76 1009.0
20260502204202 26 157 1.6 1.6 0.00 0.00 0.00 76 1009.0
20260502204102 26 157 1.6 1.6 0.00 0.00 0.00 76 1009.0
20260502202202 26 157 1.6 1.6 0.08 0.00 0.00 76 1009.0
20260502202102 26 157 1.6 1.6 0.08 0.00 0.00 76 1009.0
20260502200201 26 157 1.6 1.6 0.00 0.00 0.00 76 1009.0
20260502200101 26 157 1.6 1.6 0.00 0.00 0.00 76 1009.0
20260502194201 26 157 1.6 1.6 0.08 0.00 0.00 76 1009.0
20260502194100 26 157 1.6 1.6 0.08 0.00 0.00 76 1009.0
20260502192200 26 157 1.6 1.6 0.00 0.00 0.00 76 1009.0
20260502192100 26 157 1.6 1.6 0.00 0.00 0.00 76 1009.0
20260502190200 26 157 1.6 1.6 0.05 0.00 0.00 76 1009.0
20260502190059 26 157 1.6 1.6 0.05 0.00 0.00 76 1009.0
20260502184159 26 157 1.6 1.6 0.00 0.00 0.00 76 1009.0
20260502184059 26 157 1.6 1.6 0.00 0.00 0.00 76 1009.0
20260502182159 26 157 1.6 1.6 0.08 0.00 0.00 76 1009.0
20260502182058 26 157 1.6 1.6 0.08 0.00 0.00 76 1009.0
20260502180158 26 157 1.6 1.6 0.00 0.00 0.00 76 1009.0
20260502170156 27 304 0.0 1.6 0.00 0.00 0.00 73 1010.0
20260502164156 27 304 0.0 1.6 0.00 0.00 0.00 73 1010.0
20260502164056 27 304 0.0 1.6 0.00 0.00 0.00 73 1010.0
20260502162156 27 2 3.2 6.4 0.03 0.00 0.00 72 1010.0
20260502162055 27 2 3.2 6.4 0.03 0.00 0.00 72 1010.0
20260502160155 26 2 3.2 6.4 0.10 0.00 0.00 72 1010.0
20260502152154 26 359 3.2 6.4 0.08 0.00 0.00 78 1010.0
20260502152054 26 359 3.2 6.4 0.08 0.00 0.00 78 1010.0
20260502150154 26 359 3.2 6.4 0.10 0.00 0.00 78 1010.0
20260502130151 26 222 1.6 1.6 0.00 0.00 0.00 83 1010.0
20260502122150 26 222 1.6 1.6 0.00 0.00 0.00 83 1009.0
20260502122050 26 222 1.6 1.6 0.00 0.00 0.00 83 1009.0
20260502120150 26 222 1.6 1.6 0.00 0.00 0.00 83 1009.0
20260502114149 26 222 1.6 1.6 0.00 0.00 0.00 83 1009.0
20260502114051 26 222 1.6 1.6 0.00 0.00 0.00 83 1009.0
20260502112148 26 222 1.6 1.6 0.00 0.00 0.00 83 1009.0
20260502112048 26 222 1.6 1.6 0.00 0.00 0.00 83 1009.0
20260502110148 26 222 1.6 1.6 0.00 0.00 0.00 83 1009.0
20260502110048 26 222 1.6 1.6 0.00 0.00 0.00 83 1009.0
20260502104147 26 222 1.6 1.6 0.00 0.00 0.00 83 1009.0
20260502104047 26 222 1.6 1.6 0.00 0.00 0.00 83 1009.0
20260502102147 26 222 1.6 1.6 0.00 0.00 0.00 83 1008.0
20260502102047 26 222 1.6 1.6 0.00 0.00 0.00 83 1008.0
20260502100147 26 222 1.6 1.6 0.00 0.00 0.00 83 1008.0
20260502090145 26 222 1.6 1.6 0.00 0.00 0.00 83 1008.0
20260502070142 26 222 1.6 1.6 0.05 0.00 0.00 83 1008.0
20260502070042 26 222 1.6 1.6 0.05 0.00 0.00 83 1008.0
20260502064142 26 222 1.6 1.6 0.00 0.00 0.00 83 1008.0
20260502064042 26 222 1.6 1.6 0.00 0.00 0.00 83 1008.0
20260502062141 26 222 1.6 1.6 0.03 0.00 0.00 83 1009.0
20260502062041 26 222 1.6 1.6 0.03 0.00 0.00 83 1009.0
20260502060141 26 222 1.6 1.6 0.00 0.00 0.00 83 1009.0
20260502060040 26 222 1.6 1.6 0.00 0.00 0.00 83 1009.0
20260502054140 26 222 1.6 1.6 0.03 0.00 0.00 83 1009.0
20260502054040 26 222 1.6 1.6 0.03 0.00 0.00 83 1009.0